Regional Weather Roundup
Issued by NWS Newport/Morehead, NC

Current Version | Previous Version | Graphics & Text | Print | Product List | Glossary Off
Versions: 1 2 3 4 5 6 7 8 9 10 11 12 13 14 15 16 17 18 19 20 21 22 23 24 25 26 27 28 29 30 31 32 33 34 35 36 37 38 39 40 41 42 43 44 45 46 47 48 49 50

000
ASUS42 KMHX 220312
RWRMHX
WEATHER ROUNDUP FOR EASTERN NORTH CAROLINA
NATIONAL WEATHER SERVICE NEWPORT/MOREHEAD CITY NC
1100 PM EDT THU MAY 21 2015

NOTE: "FAIR" INDICATES FEW OR NO CLOUDS BELOW 12,000 FEET
WITH NO SIGNIFICANT WEATHER AND/OR OBSTRUCTIONS TO VISIBILITY

NCZ015>017-031-032-045>047-102-103-220400-
NORTH COAST

CITY           SKY/WX    TMP DP  RH WIND       PRES   REMARKS
EDENTON        CLOUDY    59  57  91 N10       29.92R
ELIZABETH CITY CLOUDY    59  56  89 NW15      29.91R
KITTY HAWK     CLOUDY    58  57  96 N10G21    29.87R
MANTEO         CLOUDY    60  58  94 N15G21    29.89R

$$

NCZ045>047-081-094-103-104-220400-
CENTRAL COAST

CITY           SKY/WX    TMP DP  RH WIND       PRES   REMARKS
FRISCO         CLOUDY    63  61  93 NW13G26   29.86R
SWANQUARTER      N/A     63 N/A N/A N9        29.85S

$$

NCZ095-097-098-100-101-220400-
SOUTHERN COAST

CITY           SKY/WX    TMP DP  RH WIND       PRES   REMARKS
BEAUFORT       CLEAR     63  61  93 N9        29.89R
CEDAR ISLAND     N/A     66 N/A N/A NW25      29.91S
JACKSONVILLE   CLEAR     62  59  90 N9        29.90S
PINEY ISLAND   MOCLDY   N/A N/A N/A NW16G24   29.88R
WILMINGTON     CLEAR     65  62  90 N6        29.90R


$$

NCZ011>013-027>030-043-044-078>080-089-090>093-098-220400-
COASTAL PLAIN

CITY           SKY/WX    TMP DP  RH WIND       PRES   REMARKS
AHOSKIE        CLOUDY    56  53  90 N7        29.95R
CLINTON        CLEAR     62  59  89 N6        29.94R
ELIZABETHTOWN  MOCLDY    65  62  89 NE3       29.92R
GOLDSBORO      CLEAR     60  57  88 N6        29.92R
GREENVILLE     CLOUDY    59  59 100 N8        29.95S
HAVELOCK       PTCLDY    63  59  87 N12       29.90S
KENANSVILLE    CLEAR     60  57  90 N6        29.93S
KINSTON        MOCLDY    60  58  91 NW7       29.93S
NEW BERN       PTCLDY    62  58  86 N9        29.91S
RICHLANDS      CLEAR     61  55  82 NW5       29.91S
ROCKY MOUNT    CLOUDY    60  56  86 N12       29.94S
WASHINGTON     MOCLDY   N/A N/A N/A N12       29.92S
WHITEVILLE     MOCLDY    68  61  79 NE6       29.91R

$$

AMZ130-135-150-152-154-156-158-170-250-252-270-ANZ085-086-088-633-658-670-220400-
MARINE OBSERVATIONS

STATION/POSITION TIME  TEMP    WIND        PRES    WAVE   SWELL
                       AIR SEA DIR/SP/G            HT/PER HT/PER
                 (UTC) (F)     (DEG/KT/KT) (MB)    (FT/S) (FT/S)
CHESAPEAKE LIGHT 0200   57     360/ 32/ 34 1010.8
64 E VA BEACH    0250   58 61  350/ 27/ 33 1007.6    5/ 6   2/ 9
DUCK             0200   60 66  350/ 25/ 28 1008.9
2 E DUCK         0211      66                N/A     5/ 5
OREGON INLET     0200   62 73  330/ 15/ 24 1010.0
13E OREGON INLT  0300      65                N/A     6/ 5
HATTERAS CG      0200   68 74  310/ 24/ 27 1009.7
DIAMOND BUOY     0250   69 76  320/ 25/ 29 1009.7    4/ 4   2/ 9
CAPE LOOKOUT     0300   65     350/ 12/ 16 1011.6
BEAUFORT LAB     0200   65 76  340/ 13/ 19 1010.8
27 SE WRIGHTSVLE 0200   69 78  360/ 16/ 19   N/A
5 SE WRIGHTSVLE  0208   70 76   20/ 16/ 21 1012.0
225 S CAPE HAT   0250   76 75  230/ 16/ 19 1013.8    4/ 6   2/ 8
41 SE CHARLESTON 0250   78 76  220/ 14/ 17 1011.4    3/ 5   2/ 9

$$


USA.gov is the U.S. government's official web portal to all federal, state and local government web resources and services.